Rome Ciampino, Italy

10:27 AM CET on February 13, 2016 (GMT +0100)
Ciampino

Weather History for LIRA - February, 2013

Change the Weather History Date:

Thursday, February 14, 2013

  Actual Average Record
Temperature  
Mean Temperature 43 °F -  
Max Temperature 53 °F 57 °F 62 °F (1998)
Min Temperature 33 °F 39 °F 24 °F (2012)
Degree Days  
Heating Degree Days 22    
Moisture  
Dew Point 32 °F    
Average Humidity 69    
Maximum Humidity 93    
Minimum Humidity 38    
Precipitation  
Precipitation 0.00 in 0.11 in - ()
Sea Level Pressure  
Sea Level Pressure 29.91 in    
Wind  
Wind Speed 6 mph ()    
Max Wind Speed 12 mph    
Max Gust Speed -    
Visibility 6.2 miles    
Events      
Averages and records for this station are not official NWS values.
T = Trace of Precipitation, MM = Missing Value Source: Averaged Metar Reports

Daily Weather History Graph

Daily Weather History Graph

Search for Another Location

Airport or City:

Trip Planner

Search our weather history database for the weather conditions in past years. The results will help you decide how hot, cold, wet, or windy it might be!

Date:

Astronomy

Feb. 14, 2013 Rise Set
Actual Time 7:06 AM CET 5:41 PM CET
Civil Twilight 6:38 AM CET 6:10 PM CET
Nautical Twilight 6:05 AM CET 6:43 PM CET
Astronomical Twilight 5:33 AM CET 7:15 PM CET
Moon 8:54 AM CET (2/14) 10:33 PM CET (2/14)
Length of Visible Light 11h 32m
Length of Day
10h 35m
Waxing Crescent, 19% of the Moon is Illuminated
Feb 14
Waxing Crescent
Feb 17
First Quarter
Feb 25
Full
Mar 4
Last Quarter
Mar 11
New

Hourly Weather History & Observations

Time (CET) Temp. Windchill Dew Point Humidity Pressure Visibility Wind Dir Wind Speed Gust Speed Precip Events Conditions
12:15 AM 37.4 °F 32.8 °F 32.0 °F 81% 29.80 in - NNE 5.8 mph - N/A   Clear
12:45 AM 37.4 °F 32.1 °F 32.0 °F 81% 29.80 in - NE 6.9 mph - N/A   Clear
1:15 AM 37.4 °F 32.1 °F 32.0 °F 81% 29.80 in - NE 6.9 mph - N/A   Clear
1:45 AM 37.4 °F 31.4 °F 32.0 °F 81% 29.83 in - NE 8.1 mph - N/A   Clear
2:15 AM 35.6 °F 29.2 °F 32.0 °F 87% 29.83 in - NE 8.1 mph - N/A   Clear
2:45 AM 35.6 °F 29.2 °F 33.8 °F 93% 29.83 in - NE 8.1 mph - N/A   Clear
3:15 AM 35.6 °F 29.2 °F 32.0 °F 87% 29.83 in - NE 8.1 mph - N/A   Clear
3:45 AM 35.6 °F 29.9 °F 32.0 °F 87% 29.83 in 6.2 mi NE 6.9 mph - N/A   Partly Cloudy
4:15 AM 33.8 °F 27.0 °F 30.2 °F 87% 29.86 in 6.2 mi NE 8.1 mph - N/A   Partly Cloudy
4:45 AM 33.8 °F 27.0 °F 30.2 °F 87% 29.86 in - NE 8.1 mph - N/A   Clear
5:15 AM 35.6 °F 29.2 °F 32.0 °F 87% 29.86 in - NE 8.1 mph - N/A   Clear
5:45 AM 35.6 °F 29.2 °F 32.0 °F 87% 29.86 in - NE 8.1 mph - N/A   Clear
6:15 AM 33.8 °F 27.7 °F 30.2 °F 87% 29.86 in - NE 6.9 mph - N/A   Clear
6:45 AM 33.8 °F 27.7 °F 30.2 °F 87% 29.89 in 6.2 mi NE 6.9 mph - N/A   Partly Cloudy
7:15 AM 33.8 °F 28.6 °F 30.2 °F 87% 29.89 in 6.2 mi NE 5.8 mph - N/A   Partly Cloudy
7:45 AM 33.8 °F 28.6 °F 30.2 °F 87% 29.89 in - NE 5.8 mph - N/A   Clear
8:15 AM 35.6 °F 31.7 °F 32.0 °F 87% 29.92 in - NNE 4.6 mph - N/A   Clear
8:45 AM 37.4 °F 32.8 °F 33.8 °F 87% 29.92 in - NE 5.8 mph - N/A   Clear
9:15 AM 39.2 °F 35.0 °F 33.8 °F 81% 29.95 in - NE 5.8 mph - N/A   Clear
9:45 AM 41.0 °F 37.1 °F 33.8 °F 76% 29.95 in - NNE 5.8 mph - N/A   Clear
10:15 AM 41.0 °F 36.4 °F 32.0 °F 70% 29.95 in 6.2 mi NNE 6.9 mph - N/A   Partly Cloudy
10:45 AM 44.6 °F 40.2 °F 33.8 °F 66% 29.95 in 6.2 mi NNE 8.1 mph - N/A   Partly Cloudy
11:15 AM 46.4 °F 43.5 °F 33.8 °F 62% 29.95 in 6.2 mi NNE 5.8 mph - N/A   Partly Cloudy
11:45 AM 48.2 °F - 32.0 °F 54% 29.95 in 6.2 mi North 5.8 mph - N/A   Partly Cloudy
12:15 PM 50.0 °F - 32.0 °F 50% 29.95 in 6.2 mi North 11.5 mph - N/A   Partly Cloudy
12:45 PM 50.0 °F - 32.0 °F 50% 29.95 in 6.2 mi North 6.9 mph - N/A   Partly Cloudy
1:15 PM 51.8 °F - 32.0 °F 47% 29.95 in 6.2 mi North 5.8 mph - N/A   Partly Cloudy
1:45 PM 51.8 °F - 32.0 °F 47% 29.95 in 6.2 mi North 6.9 mph - N/A   Partly Cloudy
2:15 PM 51.8 °F - 32.0 °F 47% 29.95 in 6.2 mi North 4.6 mph - N/A   Partly Cloudy
2:45 PM 53.6 °F - 28.4 °F 38% 29.95 in 6.2 mi NNW 6.9 mph - N/A   Partly Cloudy
3:15 PM 53.6 °F - 28.4 °F 38% 29.92 in 6.2 mi NNW 5.8 mph - N/A   Partly Cloudy
3:45 PM 53.6 °F - 28.4 °F 38% 29.92 in - NW 5.8 mph - N/A   Clear
4:15 PM 53.6 °F - 28.4 °F 38% 29.95 in - NNW 5.8 mph - N/A   Clear
4:45 PM 51.8 °F - 28.4 °F 41% 29.95 in - WNW 6.9 mph - N/A   Clear
5:15 PM 51.8 °F - 32.0 °F 47% 29.95 in - West 5.8 mph - N/A   Clear
5:45 PM 50.0 °F - 33.8 °F 54% 29.95 in - WSW 3.5 mph - N/A   Clear
6:15 PM 48.2 °F - 35.6 °F 62% 29.92 in - Calm Calm - N/A   Clear
6:45 PM 48.2 °F - 35.6 °F 62% 29.92 in - NNW 1.2 mph - N/A   Clear
7:15 PM 46.4 °F 43.5 °F 33.8 °F 62% 29.95 in - NNW 5.8 mph - N/A   Clear
7:45 PM 44.6 °F 42.2 °F 33.8 °F 66% 29.95 in - North 4.6 mph - N/A   Clear
8:15 PM 44.6 °F - 33.8 °F 66% 29.95 in - NNE 2.3 mph - N/A   Clear
8:45 PM 42.8 °F 40.1 °F 33.8 °F 70% 29.95 in - NNE 4.6 mph - N/A   Clear
9:15 PM 42.8 °F 40.1 °F 33.8 °F 70% 29.95 in - North 4.6 mph - N/A   Clear
9:45 PM 42.8 °F - 33.8 °F 70% 29.95 in - NNE 2.3 mph - N/A   Clear
10:15 PM 41.0 °F - 33.8 °F 76% 29.95 in - NE 2.3 mph - N/A   Clear
10:45 PM 41.0 °F - 33.8 °F 76% 29.95 in - NE 2.3 mph - N/A   Clear
11:15 PM 41.0 °F - 33.8 °F 76% 29.95 in - ENE 1.2 mph - N/A   Clear
11:45 PM 39.2 °F - 33.8 °F 81% 29.95 in - NNE 1.2 mph - N/A   Clear